Location: Lancaster
(34.6980°N, 118.1360°W)
Time: 03:31:23
(UTC-08:00)

Envisat - Visible Passes

Search period start: 19 January 2018 00:00
Search period end: 29 January 2018 00:00
Orbit: 764 x 766 km, 98.2° (Epoch: 18 January)

Date Brightness Start Highest point End Pass type
(mag) Time Alt. Az. Time Alt. Az. Time Alt. Az.
20 Jan 5.2 19:08:57 12° N 19:08:57 12° N 19:09:18 10° N visible
21 Jan 5.1 18:31:32 10° NNE 18:31:32 10° NNE 18:31:36 10° NNE visible
22 Jan 5.2 19:34:18 15° N 19:34:18 15° N 19:35:06 10° N visible
23 Jan 4.8 18:56:53 16° NNE 18:56:53 16° NNE 18:57:59 10° N visible
24 Jan 4.9 18:19:27 11° NE 18:19:27 11° NE 18:19:53 10° NNE visible
24 Jan 5.3 19:59:39 15° NNW 19:59:39 15° NNW 20:00:35 10° NNW visible
25 Jan 4.6 19:22:12 21° N 19:22:12 21° N 19:23:55 10° N visible
26 Jan 4.5 18:44:45 19° NNE 18:44:45 19° NNE 18:46:35 10° NNE visible
26 Jan 5.6 20:24:57 14° NW 20:24:57 14° NW 20:25:41 10° NW visible
27 Jan 4.9 18:07:18 11° NE 18:07:18 11° NE 18:07:46 10° NE visible
27 Jan 4.6 19:47:29 25° NNW 19:47:29 25° NNW 19:49:32 10° NNW visible
28 Jan 4.1 19:10:02 29° NNE 19:10:02 29° NNE 19:12:41 10° N visible
